Location: Blue Sky Observatory
(43.1153°N, 70.9036°W)
Time: 02:26:48
(UTC-05:00)

Amateur Radio Satellites - All Passes

Search period start: 18 January 2018 01:56
Search period end: 19 January 2018 01:56
Location: Blue Sky Observatory, 43.1153°N, 70.9036°W

Satellite Date Start Highest point End Downlink Frequencies (MHz)
Time Altitude Azimuth
ITUPSAT 1 18 Jan 02:23:09 02:27:54 83° 75° (ENE) 02:32:43 437.325
UKube-1 18 Jan 02:29:23 02:31:34 14° 269° (W) 02:33:45 .
Oscar 19 18 Jan 02:30:05 02:34:28 28° 295° (WNW) 02:38:49 437.125/150
O/OREOS (USA 219) 18 Jan 02:36:19 02:38:09 12° 311° (NW) 02:40:01 437.305
AO-7 18 Jan 02:36:34 02:44:18 39° 98° (E) 02:51:56 .
ISS 18 Jan 02:57:46 03:00:55 41° 25° (NNE) 03:04:02 437.550
nSIGHT-1 18 Jan 02:58:30 03:01:38 54° 29° (NNE) 03:04:46 .
BEESAT 18 Jan 03:05:43 03:10:07 37° 262° (W) 03:14:33 436.000
DOVE 4 18 Jan 03:18:44 03:20:04 11° 90° (E) 03:21:25 437.250
CUBESAT XI-V 18 Jan 03:20:40 03:25:19 60° 260° (W) 03:29:58 437.345
ITAMSAT 1 18 Jan 03:28:07 03:33:16 59° 102° (ESE) 03:38:23 435.822/435.867
MOZHAYETS 4 18 Jan 03:29:30 03:31:49 14° 271° (W) 03:34:07
Gurwin Techsat 1B 18 Jan 03:29:47 03:32:08 13° 303° (WNW) 03:34:31 435.225
KKS-1 18 Jan 03:43:41 03:47:47 39° 70° (ENE) 03:51:54 437.445
M-CUBED/EXP-1 PRIME 18 Jan 03:53:32 03:55:35 15° 98° (E) 03:57:35 437.505
ITUPSAT 1 18 Jan 04:05:11 04:06:20 11° 272° (W) 04:07:28 437.325
STARS 18 Jan 04:09:39 04:13:24 29° 68° (ENE) 04:17:10 437.465
AO-7 18 Jan 04:29:12 04:37:12 51° 298° (WNW) 04:45:08 .
ISS 18 Jan 04:34:24 04:37:19 29° 222° (SW) 04:40:12 437.550
nSIGHT-1 18 Jan 04:35:12 04:37:34 19° 225° (SW) 04:39:56 .
CUTE-I 18 Jan 04:39:59 04:41:40 11° 88° (E) 04:43:21 437.470
DOVE 4 18 Jan 04:53:53 04:58:08 68° 285° (WNW) 05:02:35 437.250
FALCONSAT 3 18 Jan 04:54:53 04:56:41 13° 160° (SSE) 04:58:29 435.103
LilacSat-2 18 Jan 04:58:21 05:01:08 19° 93° (E) 05:03:53 437.200
STRAND 1 18 Jan 04:59:32 05:02:43 17° 60° (ENE) 05:05:55 437.568
XW-2C 18 Jan 05:04:47 05:07:41 21° 94° (E) 05:10:33 145.795 - 145.815
ITAMSAT 1 18 Jan 05:08:37 05:12:16 20° 299° (WNW) 05:15:54 435.822/435.867
SO-50 18 Jan 05:09:54 05:13:41 27° 114° (ESE) 05:17:30 436.795
FO-29 18 Jan 05:14:20 05:17:44 15° 58° (ENE) 05:20:58 435.910
KKS-1 18 Jan 05:21:10 05:24:27 20° 266° (W) 05:27:47 437.445
M-CUBED/EXP-1 PRIME 18 Jan 05:27:05 05:30:08 30° 296° (WNW) 05:33:02 437.505
CUBEBUG 2 18 Jan 05:38:54 05:40:34 12° 88° (E) 05:42:14 437.445
XW-2F 18 Jan 05:43:49 05:47:31 58° 100° (E) 05:51:10 145.980 - 146.000
STARS 18 Jan 05:45:59 05:49:41 27° 264° (W) 05:53:24 437.465
KAITUO 1B 18 Jan 05:47:57 05:51:33 48° 99° (E) 05:55:07 145.475/437.950
XW-2D 18 Jan 05:50:34 05:54:21 81° 102° (ESE) 05:58:05 145.860 - 145.880
SEEDS 18 Jan 05:54:16 05:56:21 13° 90° (E) 05:58:26 437.485
CUTE 1.7 + AOD 2 18 Jan 05:59:09 06:02:42 26° 95° (E) 06:06:12 437.475
HO-68 18 Jan 06:01:26 06:07:54 35° 96° (E) 06:14:19 435.675
NUDT-PHONESAT 18 Jan 06:04:59 06:08:41 76° 103° (ESE) 06:12:20 437.300
XW-2B 18 Jan 06:08:04 06:11:49 64° 285° (WNW) 06:15:32 145.730 - 145.750
CUTE-I 18 Jan 06:17:04 06:22:25 90° 339° (NNW) 06:27:45 437.470
AO-7 18 Jan 06:24:40 06:28:00 13° 320° (NW) 06:31:20 .
LilacSat-2 18 Jan 06:32:06 06:35:26 30° 290° (WNW) 06:38:44 437.200
FALCONSAT 3 18 Jan 06:32:07 06:35:06 23° 175° (S) 06:38:04 435.103
STRAND 1 18 Jan 06:36:17 06:41:21 67° 258° (WSW) 06:46:27 437.568
XW-2C 18 Jan 06:38:37 06:41:50 27° 290° (WNW) 06:45:02 145.795 - 145.815
SO-50 18 Jan 06:49:51 06:53:59 36° 312° (NW) 06:58:13 436.795
FO-29 18 Jan 06:55:01 07:02:03 79° 74° (ENE) 07:08:16 435.910
Oscar 11 18 Jan 07:07:19 07:09:42 14° 90° (E) 07:12:05 .
TIGRISAT 18 Jan 07:10:46 07:11:34 10° 59° (ENE) 07:12:23 435.000
CUBEBUG 2 18 Jan 07:12:56 07:17:42 78° 285° (WNW) 07:22:26 437.445
XW-2A 18 Jan 07:15:47 07:18:55 35° 98° (E) 07:22:00 145.665 - 145.685
AAUSAT CUBESAT 2 18 Jan 07:19:46 07:23:47 51° 100° (E) 07:27:46 437.432
XW-2F 18 Jan 07:20:00 07:21:07 11° 297° (WNW) 07:22:13 145.980 - 146.000
UNISAT 6 18 Jan 07:23:08 07:25:45 16° 62° (ENE) 07:28:25 437.425
KAITUO 1B 18 Jan 07:23:28 07:25:05 13° 296° (WNW) 07:26:43 145.475/437.950
RS-15 18 Jan 07:25:04 07:36:19 44° 108° (ESE) 07:47:27 29.354- 29.394
UWE-3 18 Jan 07:25:05 07:29:49 81° 103° (ESE) 07:34:27 435.000/436.395/437.385
SEEDS 18 Jan 07:28:17 07:32:21 52° 287° (WNW) 07:36:23 437.485
CUTE 1.7 + AOD 2 18 Jan 07:34:52 07:38:29 28° 291° (WNW) 07:42:03 437.475
HO-68 18 Jan 07:48:59 07:55:45 48° 295° (WNW) 08:02:31 435.675
ZACube-1 18 Jan 07:56:06 08:00:43 90° 161° (SSE) 08:05:14 437.345
CUTE-I 18 Jan 07:59:08 08:01:41 14° 303° (WNW) 08:04:14 437.470
AO-73 18 Jan 08:04:54 08:09:29 84° 286° (WNW) 08:13:59 145.935
FALCONSAT 3 18 Jan 08:10:47 08:13:36 21° 190° (S) 08:16:26 435.103
DELFI C3 18 Jan 08:27:08 08:29:55 19° 93° (E) 08:32:43 145.870
PRISM 18 Jan 08:33:07 08:35:53 18° 65° (ENE) 08:38:40 437.425
Oscar 11 18 Jan 08:41:55 08:46:09 53° 287° (WNW) 08:50:20 .
FO-29 18 Jan 08:43:00 08:47:32 18° 269° (W) 08:51:47 435.910
TIGRISAT 18 Jan 08:43:05 08:47:29 89° 280° (W) 08:52:00 435.000
XW-2A 18 Jan 08:49:34 08:51:16 13° 294° (WNW) 08:52:59 145.665 - 145.685
AAUSAT CUBESAT 2 18 Jan 08:56:30 08:58:48 15° 296° (WNW) 09:01:05 437.432
UNISAT 6 18 Jan 08:57:39 09:01:57 57° 260° (W) 09:06:25 437.425
UWE-3 18 Jan 09:03:37 09:05:33 13° 300° (WNW) 09:07:31 435.000/436.395/437.385
AIST 2D 18 Jan 09:04:49 09:06:47 14° 66° (ENE) 09:08:45 435.315
PCSat 18 Jan 09:22:27 09:27:06 30° 110° (ESE) 09:31:46 145.827
O/OREOS (USA 219) 18 Jan 09:23:58 09:27:30 22° 55° (NE) 09:31:00 437.305
EO-79 18 Jan 09:27:00 09:27:40 10° 60° (ENE) 09:28:20 145.935-145.965
YUBILEINY 18 Jan 09:29:43 09:38:11 50° 75° (ENE) 09:46:32 435.215
ZACube-1 18 Jan 09:35:05 09:36:13 11° 301° (WNW) 09:37:21 437.345
RS-15 18 Jan 09:36:11 09:48:25 64° 311° (NW) 10:00:27 29.354- 29.394
Max Valier Satellite 18 Jan 09:44:27 09:48:10 76° 285° (WNW) 09:51:51 145.860
BEESAT 3 18 Jan 09:51:28 09:55:20 52° 119° (ESE) 09:59:13 437.485
POLYITAN 1 18 Jan 09:58:12 10:01:28 22° 66° (ENE) 10:04:46 437.675
DELFI C3 18 Jan 10:01:12 10:04:44 33° 290° (WNW) 10:08:16 145.870
PRISM 18 Jan 10:07:02 10:10:51 39° 261° (W) 10:14:41 437.425
LO-87 18 Jan 10:07:29 10:09:39 15° 92° (E) 10:11:49 145.935 - 145.965
EO-88 18 Jan 10:10:44 10:14:18 54° 286° (WNW) 10:17:50 145.990 - 145.960
NANOSAT C BR1 18 Jan 10:16:19 10:19:59 30° 68° (ENE) 10:23:40 145.865
QB50P2 18 Jan 10:26:38 10:30:42 48° 72° (ENE) 10:34:49 145.880/145.840
ESTCUBE 1 18 Jan 10:28:07 10:31:42 23° 94° (E) 10:35:16 437.505/2401.250
BEESAT 2 18 Jan 10:32:05 10:35:46 37° 117° (ESE) 10:39:31 435.950
AIST 2D 18 Jan 10:36:19 10:39:37 36° 262° (W) 10:42:55 435.315
BUGSAT 1 18 Jan 10:42:20 10:43:46 12° 61° (ENE) 10:45:11 437.445
EO-79 18 Jan 10:58:32 11:02:44 83° 259° (W) 11:07:00 145.935-145.965
DUCHIFAT 1 18 Jan 11:01:12 11:05:23 80° 75° (ENE) 11:09:37 145.980
O/OREOS (USA 219) 18 Jan 11:02:52 11:07:03 40° 253° (WSW) 11:11:14 437.305
SPROUT 18 Jan 11:02:55 11:04:47 12° 90° (E) 11:06:38 437.525
PCSat 18 Jan 11:05:12 11:10:19 42° 308° (NW) 11:15:29 145.827
YUBILEINY 18 Jan 11:26:57 11:34:42 37° 275° (W) 11:42:24 435.215
BEESAT 3 18 Jan 11:30:15 11:33:08 19° 318° (NW) 11:36:02 437.485
Gurwin Techsat 1B 18 Jan 11:31:24 11:35:31 23° 63° (ENE) 11:39:38 435.225
POLYITAN 1 18 Jan 11:33:10 11:37:02 34° 263° (W) 11:40:56 437.675
LO-87 18 Jan 11:39:49 11:43:10 35° 288° (WNW) 11:46:29 145.935 - 145.965
AO-7 18 Jan 11:49:06 11:53:20 15° 43° (NE) 11:57:34 .
NANOSAT C BR1 18 Jan 11:52:12 11:55:39 24° 265° (W) 11:59:09 145.865
RS-15 18 Jan 11:53:44 12:03:57 29° 341° (NNW) 12:13:54 29.354- 29.394
AO-85 18 Jan 11:55:59 11:59:39 38° 116° (ESE) 12:03:33 145.980
QB50P2 18 Jan 12:04:17 12:06:45 15° 269° (W) 12:09:15 145.880/145.840
ESTCUBE 1 18 Jan 12:04:29 12:08:34 35° 291° (WNW) 12:12:38 437.505/2401.250
Oscar 19 18 Jan 12:08:01 12:13:07 62° 73° (ENE) 12:18:16 437.125/150
BEESAT 2 18 Jan 12:10:14 12:13:35 24° 315° (NW) 12:16:57 435.950
BUGSAT 1 18 Jan 12:14:29 12:18:31 68° 259° (WSW) 12:22:38 437.445
VELOX 1 18 Jan 12:16:52 12:21:03 42° 99° (E) 12:25:13 145.980
AO-91 18 Jan 12:35:47 12:39:07 61° 259° (W) 12:42:31 145.960
SPROUT 18 Jan 12:36:48 12:41:02 61° 287° (WNW) 12:45:16 437.525
DX 1 18 Jan 12:43:26 12:46:08 16° 92° (E) 12:48:49 434.975-435.025
50 SAT 18 Jan 12:47:32 12:48:38 11° 92° (E) 12:49:44 437.505
PCSat 18 Jan 12:54:35 12:55:14 10° 330° (NNW) 12:55:54 145.827
Gurwin Techsat 1B 18 Jan 13:09:58 13:15:06 50° 260° (W) 13:20:18 435.225
ITAMSAT 1 18 Jan 13:10:43 13:13:26 14° 58° (ENE) 13:16:09 435.822/435.867
AO-7 18 Jan 13:36:15 13:44:22 59° 65° (ENE) 13:52:33 .
AO-85 18 Jan 13:36:50 13:40:11 24° 317° (NW) 13:43:44 145.980
SO-50 18 Jan 13:39:19 13:43:41 36° 48° (NE) 13:48:05 436.795
MOZHAYETS 4 18 Jan 13:45:12 13:47:36 14° 90° (E) 13:50:01
Oscar 19 18 Jan 13:49:31 13:52:51 17° 269° (W) 13:56:12 437.125/150
VELOX 1 18 Jan 13:54:02 13:57:11 20° 296° (WNW) 14:00:20 145.980
RS-15 18 Jan 14:11:37 14:21:34 28° 17° (NNE) 14:31:07 29.354- 29.394
UKube-1 18 Jan 14:12:33 14:16:52 89° 93° (E) 14:21:11 .
50 SAT 18 Jan 14:17:38 14:20:29 32° 288° (WNW) 14:23:18 437.505
DX 1 18 Jan 14:18:22 14:22:33 48° 289° (WNW) 14:26:44 434.975-435.025
ITUPSAT 1 18 Jan 14:23:25 14:26:54 20° 93° (E) 14:30:21 437.325
DOVE 4 18 Jan 14:25:17 14:27:19 13° 63° (ENE) 14:29:21 437.250
M-CUBED/EXP-1 PRIME 18 Jan 14:38:19 14:42:10 31° 65° (ENE) 14:45:50 437.505
ITAMSAT 1 18 Jan 14:47:01 14:52:12 82° 256° (WSW) 14:57:24 435.822/435.867
BEESAT 18 Jan 15:04:13 15:08:53 50° 100° (E) 15:13:31 436.000
CUBESAT XI-V 18 Jan 15:16:22 15:20:28 30° 96° (E) 15:24:31 437.345
SO-50 18 Jan 15:19:55 15:24:04 31° 245° (WSW) 15:28:14 436.795
MOZHAYETS 4 18 Jan 15:20:34 15:25:10 62° 287° (WNW) 15:29:43
AO-7 18 Jan 15:30:09 15:37:28 33° 264° (W) 15:44:52 .
LilacSat-2 18 Jan 15:42:12 15:43:52 12° 64° (ENE) 15:45:33 437.200
XW-2C 18 Jan 15:47:51 15:49:42 13° 64° (ENE) 15:51:33 145.795 - 145.815
DOVE 4 18 Jan 16:00:16 16:04:35 60° 259° (W) 16:08:45 437.250
ITUPSAT 1 18 Jan 16:00:19 16:04:57 48° 290° (WNW) 16:09:33 437.325
CUTE-I 18 Jan 16:01:31 16:05:36 23° 63° (ENE) 16:09:40 437.470
M-CUBED/EXP-1 PRIME 18 Jan 16:12:47 16:16:30 26° 258° (WSW) 16:20:03 437.505
XW-2F 18 Jan 16:25:11 16:28:34 31° 71° (ENE) 16:31:58 145.980 - 146.000
RS-15 18 Jan 16:25:22 16:37:07 62° 48° (NE) 16:48:10 29.354- 29.394
KAITUO 1B 18 Jan 16:28:36 16:31:46 26° 69° (ENE) 16:34:56 145.475/437.950
NO-84 18 Jan 16:30:52 16:32:17 13° 128° (SE) 16:33:42 435.350 FM
HO-68 18 Jan 16:31:34 16:37:35 30° 60° (ENE) 16:43:35 435.675
XW-2D 18 Jan 16:32:09 16:35:47 42° 72° (ENE) 16:39:25 145.860 - 145.880
CUBEBUG 2 18 Jan 16:38:58 16:40:00 11° 59° (ENE) 16:41:02 437.445
BEESAT 18 Jan 16:42:50 16:46:17 20° 297° (WNW) 16:49:43 436.000
NUDT-PHONESAT 18 Jan 16:44:21 16:47:48 37° 72° (ENE) 16:51:17 437.300
SEEDS 18 Jan 16:47:41 16:49:12 12° 62° (ENE) 16:50:42 437.485
XW-2B 18 Jan 16:49:27 16:53:15 66° 75° (ENE) 16:57:04 145.730 - 145.750
CUTE 1.7 + AOD 2 18 Jan 16:52:47 16:56:03 22° 67° (ENE) 16:59:19 437.475
CUBESAT XI-V 18 Jan 16:53:48 16:57:44 28° 293° (WNW) 17:01:39 437.345
KKS-1 18 Jan 17:09:26 17:13:52 68° 102° (ESE) 17:18:19 437.445
LilacSat-2 18 Jan 17:13:53 17:17:40 54° 260° (W) 17:21:29 437.200
XW-2C 18 Jan 17:19:42 17:23:26 50° 260° (W) 17:27:11 145.795 - 145.815
STARS 18 Jan 17:33:15 17:37:32 47° 100° (E) 17:41:48 437.465
CUTE-I 18 Jan 17:40:08 17:45:17 51° 260° (W) 17:50:28 437.470
XW-2A 18 Jan 17:48:22 17:50:23 15° 67° (ENE) 17:52:25 145.665 - 145.685
XW-2F 18 Jan 17:59:57 18:02:43 19° 267° (W) 18:05:29 145.980 - 146.000
KAITUO 1B 18 Jan 18:02:41 18:05:41 22° 265° (W) 18:08:41 145.475/437.950
Oscar 11 18 Jan 18:03:30 18:05:41 14° 62° (ENE) 18:07:54 .
NO-84 18 Jan 18:06:12 18:09:09 55° 323° (NW) 18:11:59 435.350 FM
BEESAT 3 18 Jan 18:07:03 18:10:47 40° 51° (NE) 18:14:27 437.485
XW-2D 18 Jan 18:08:03 18:10:08 14° 269° (W) 18:12:15 145.860 - 145.880
PCSat 18 Jan 18:08:39 18:13:32 33° 49° (NE) 18:18:24 145.827
AAUSAT CUBESAT 2 18 Jan 18:10:24 18:14:12 37° 71° (ENE) 18:18:01 437.432
CUBEBUG 2 18 Jan 18:11:30 18:15:50 86° 252° (WSW) 18:20:22 437.445
HO-68 18 Jan 18:17:52 18:24:54 58° 258° (WSW) 18:31:58 435.675
NUDT-PHONESAT 18 Jan 18:19:30 18:21:46 15° 268° (W) 18:24:03 437.300
SEEDS 18 Jan 18:20:04 18:24:17 71° 258° (WSW) 18:28:31 437.485
UWE-3 18 Jan 18:22:27 18:26:48 70° 76° (ENE) 18:31:20 435.000/436.395/437.385
CUTE 1.7 + AOD 2 18 Jan 18:27:44 18:31:39 35° 263° (W) 18:35:36 437.475
RS-15 18 Jan 18:38:30 18:49:02 43° 252° (WSW) 18:59:07 29.354- 29.394
STRAND 1 18 Jan 18:45:48 18:50:36 38° 98° (E) 18:55:23 437.568
AO-85 18 Jan 18:46:29 18:48:17 12° 32° (NNE) 18:50:07 145.980
KKS-1 18 Jan 18:47:42 18:49:52 14° 299° (WNW) 18:52:03 437.445
BEESAT 2 18 Jan 18:48:28 18:52:06 31° 48° (NE) 18:55:40 435.950
ZACube-1 18 Jan 18:52:07 18:56:31 77° 75° (ENE) 19:01:03 437.345
AO-73 18 Jan 19:00:33 19:04:58 82° 74° (ENE) 19:09:30 145.935
STARS 18 Jan 19:10:32 19:13:30 18° 297° (WNW) 19:16:29 437.465
DELFI C3 18 Jan 19:14:10 19:15:59 13° 64° (ENE) 19:17:48 145.870
XW-2A 18 Jan 19:19:40 19:22:48 32° 263° (W) 19:25:56 145.665 - 145.685
Oscar 11 18 Jan 19:36:59 19:41:18 63° 259° (W) 19:45:39 .
BEESAT 3 18 Jan 19:45:16 19:48:00 18° 248° (WSW) 19:50:42 437.485
NO-84 18 Jan 19:45:38 19:46:50 12° 342° (NNW) 19:48:00 435.350 FM
AAUSAT CUBESAT 2 18 Jan 19:46:49 19:49:46 19° 267° (W) 19:52:43 437.432
FO-29 18 Jan 19:48:37 19:53:48 59° 101° (E) 19:58:56 435.910
PCSat 18 Jan 19:51:57 19:57:01 41° 248° (WSW) 20:02:03 145.827
UWE-3 18 Jan 20:02:19 20:03:47 11° 272° (W) 20:05:16 435.000/436.395/437.385
Max Valier Satellite 18 Jan 20:23:30 20:27:07 50° 74° (ENE) 20:30:46 145.860
AO-85 18 Jan 20:24:57 20:29:45 51° 52° (NE) 20:34:50 145.980
STRAND 1 18 Jan 20:25:18 20:29:37 28° 295° (WNW) 20:33:55 437.568
BEESAT 2 18 Jan 20:26:20 20:29:42 26° 246° (WSW) 20:32:59 435.950
ZACube-1 18 Jan 20:32:26 20:33:21 11° 273° (W) 20:34:16 437.345
TIGRISAT 18 Jan 20:34:12 20:37:34 19° 92° (E) 20:40:55 435.000
DELFI C3 18 Jan 20:46:26 20:50:15 53° 260° (W) 20:54:06 145.870
UNISAT 6 18 Jan 20:48:15 20:52:20 29° 95° (E) 20:56:24 437.425
EO-88 18 Jan 20:48:25 20:52:02 68° 75° (ENE) 20:55:42 145.990 - 145.960
nSIGHT-1 18 Jan 21:11:28 21:14:35 65° 144° (SE) 21:17:44 .
ISS 18 Jan 21:14:22 21:17:30 47° 141° (SE) 21:20:40 437.550
ESTCUBE 1 18 Jan 21:28:26 21:32:07 25° 66° (ENE) 21:35:47 437.505/2401.250
FO-29 18 Jan 21:34:58 21:38:27 18° 300° (WNW) 21:41:52 435.910
PRISM 18 Jan 21:47:14 21:50:32 23° 95° (E) 21:53:48 437.425
SPROUT 18 Jan 21:57:48 21:59:19 12° 61° (ENE) 22:00:49 437.525
Max Valier Satellite 18 Jan 21:59:59 22:01:13 11° 270° (W) 22:02:27 145.860
AIST 2D 18 Jan 22:00:58 22:02:49 14° 92° (E) 22:04:40 435.315
AO-85 18 Jan 22:05:56 22:09:57 24° 247° (WSW) 22:14:08 145.980
TIGRISAT 18 Jan 22:09:57 22:14:28 47° 288° (WNW) 22:18:57 435.000
LO-87 18 Jan 22:15:44 22:19:16 82° 257° (WSW) 22:22:53 145.935 - 145.965
UNISAT 6 18 Jan 22:24:51 22:28:59 31° 292° (WNW) 22:33:07 437.425
YUBILEINY 18 Jan 22:31:26 22:39:57 56° 90° (E) 22:48:27 435.215
EO-79 18 Jan 22:43:19 22:45:49 15° 91° (E) 22:48:17 145.935-145.965
DUCHIFAT 1 18 Jan 22:46:03 22:47:37 12° 90° (E) 22:49:11 145.980
nSIGHT-1 18 Jan 22:48:15 22:50:58 25° 342° (NNW) 22:53:41 .
ISS 18 Jan 22:51:08 22:54:05 30° 339° (NNW) 22:57:03 437.550
NO-84 18 Jan 23:01:04 23:03:14 19° 26° (NNE) 23:05:26 435.350 FM
ESTCUBE 1 18 Jan 23:04:37 23:08:44 34° 263° (W) 23:12:53 437.505/2401.250
VELOX 1 18 Jan 23:14:41 23:18:49 42° 71° (ENE) 23:22:58 145.980
POLYITAN 1 18 Jan 23:16:30 23:20:26 34° 97° (E) 23:24:20 437.675
PRISM 18 Jan 23:22:15 23:25:47 29° 291° (WNW) 23:29:18 437.425
SPROUT 18 Jan 23:30:21 23:34:35 73° 258° (WSW) 23:38:51 437.525
AIST 2D 18 Jan 23:32:56 23:36:06 34° 288° (WNW) 23:39:15 435.315
NANOSAT C BR1 18 Jan 23:34:20 23:38:29 47° 99° (E) 23:42:35 145.865
O/OREOS (USA 219) 18 Jan 23:37:52 23:41:07 20° 101° (E) 23:44:22 437.305
DX 1 18 Jan 23:40:01 23:42:48 17° 63° (ENE) 23:45:36 434.975-435.025
QB50P2 18 Jan 23:45:43 23:50:02 82° 103° (ESE) 23:54:19 145.880/145.840
BUGSAT 1 18 Jan 23:56:02 23:58:42 16° 92° (E) 00:01:22 437.445
EO-79 19 Jan 00:17:41 00:21:50 50° 288° (WNW) 00:25:58 145.935-145.965
DUCHIFAT 1 19 Jan 00:19:27 00:23:41 63° 286° (WNW) 00:27:53 145.980
Oscar 19 19 Jan 00:19:29 00:23:12 20° 92° (E) 00:26:54 437.125/150
AO-91 19 Jan 00:23:11 00:26:43 23° 96° (E) 00:30:30 145.960
nSIGHT-1 19 Jan 00:25:40 00:27:54 17° 2° (N) 00:30:08 .
ISS 19 Jan 00:28:56 00:31:17 18° 359° (N) 00:33:39 437.550
YUBILEINY 19 Jan 00:29:16 00:37:06 35° 291° (WNW) 00:44:58 435.215
NO-84 19 Jan 00:37:44 00:40:32 48° 224° (SW) 00:43:28 435.350 FM
50 SAT 19 Jan 00:42:17 00:45:20 66° 76° (ENE) 00:48:25 437.505
MOZHAYETS 4 19 Jan 00:47:58 00:50:48 16° 62° (ENE) 00:53:40
VELOX 1 19 Jan 00:52:21 00:55:26 19° 267° (W) 00:58:32 145.980
POLYITAN 1 19 Jan 00:52:38 00:56:01 23° 294° (WNW) 00:59:23 437.675
UKube-1 19 Jan 01:07:24 01:11:41 84° 78° (ENE) 01:16:01 .
NANOSAT C BR1 19 Jan 01:11:01 01:13:48 17° 296° (WNW) 01:16:35 145.865
DX 1 19 Jan 01:14:24 01:18:36 49° 260° (W) 01:22:49 434.975-435.025
O/OREOS (USA 219) 19 Jan 01:15:55 01:20:13 42° 299° (WNW) 01:24:30 437.305
QB50P2 19 Jan 01:24:08 01:25:09 11° 300° (WNW) 01:26:10 145.880/145.840
Gurwin Techsat 1B 19 Jan 01:24:54 01:30:10 60° 101° (E) 01:35:24 435.225
BUGSAT 1 19 Jan 01:30:12 01:34:16 46° 288° (WNW) 01:38:20 437.445
ITUPSAT 1 19 Jan 01:30:52 01:34:49 26° 65° (ENE) 01:38:46 437.325
AO-7 19 Jan 01:38:52 01:43:29 16° 88° (E) 01:48:05 .
